Showing default

O3B FM3, 40079

Orbit data source: Space-Track

O3B FM3, 40079 is a payload satellite owned by O3B (JE) that was launched on Thu, 10 Jul 2014 UTC via a SOYUZ-ST-B launch vehicle from the French Guiana (FRGUI). Payload-class satellites include a variety of spacecraft equipped with specific instruments for various scientific and technological missions. These include communications satellites like Starlink; space stations such as the ISS; scientific satellites like the Hubble; Earth observation satellites from companies like Planet Labs, Umbra, and HawkEye 360; GPS; miniature CubeSats for education and research; and military/defense satellites.

Loading next visibility...
Identifier
40079, 2014-038A
Orbit
Active
Country
Flag of UnknownUnknown / O3B
Related business
Manufacturer
Thales Alenia
Mission
Operational Commercial Communications
Bus & Motor
PRISMA?, LS-400 AOCS?
Mass
700 kg wet, ~500 kg dry
Launch date (UTC)
2014-07-10 (12 years ago)
Launch vehicle
SOYUZ-ST-B
Launch site
French Guiana (FRGUI)
Object type
Payload
Rocket body
Debris
Shape & HBR
Trap Box + 2 Pan, 6.0 m
Radar Cross Section
21.980 m², Large (>1 m²)

Expand to show TLE details & history
Last TLE update: 9 hours ago

TLE from 9 hours ago
0 O3B FM3
1 40079U 14038A   26140.52093494 -.00000022  00000-0  00000-0 0  9990
2 40079   0.0498 354.7262 0001821 126.8129 238.4784  5.00115600211663
Epoch: 2026-05-20T12:30Z
TLE epoch observation values (Epoch: 2026-05-20T12:30:08.778Z)
Latitude
0.00779°
Longitude
-65.71593°
Altitude
8,065.741 km
Speed
5.254 km/s
True Right ascension
23h 59m 59s
True Declination
0° 00' 28"
Sunlit
Object was in daylight at epoch
Visualization orbit readout
Latitude
Unknown
Longitude
Unknown
Altitude
Unknown
Speed
Unknown
Apparent Right ascension
Unknown
Apparent Declination
Unknown
Sunlit
N/A
Visualization observer readout
Local Sidereal Time
06:39:31
Azimuth
Unknown
Elevation
Unknown
Doppler factor
Unknown
Orbital elements
Apogee altitude
8,071.578 km
Perigee altitude
8,066.316 km
Semi-major axis
14,447.084 km
Eccentricity
0.00018
Inclination
0.0498°
RAAN
354.7262°
Arg. of periapsis
126.8129°
True anomaly
238.46061°
Mean anomaly
238.4784°
Eccentric anomaly
238.46951°
Mean motion
1.24989 °/min
Orbital period
288.02 mins
BSTAR
0
Loading maneuver chart data...
Computing Atmospheric mass density...
Loading historical data...
Loading historical data...
Loading historical data...
Loading historical data...
Loading historical data...
Loading historical data...
Loading historical data...
Other satellites on launch #38 in the year 2014 (2014-07-10 UTC)

Documentation

Showing up to 5 results
|